Погода в Малокурганном

Россия / Карачаево-Черкесская Республика     43°50′36″N   41°54′32″E
темп.,
°C
ветер,
м/с
пор.,
м/с
влажн.,
%
обл.,
%
осадки,
мм/ч
давл.,
гПа
погр.,
м
18 августа, чт
чт1800:00+14юв33940 0.0 101352
03:00+13юв33860 0.0 101355
06:00+13юв3382100 0.0 101356
09:00+22ссз11560 0.0 1011586
12:00+26ссз224819 0.0 10091735
15:00+23ссв126883 1.4 1009142
18:00+20сз22830 2.1 101027
21:00+15ююв22950 3.0 101225
19 августа, пт
пт1900:00+13вюв11945 0.0 101213
03:00+12юв2294100 1.1 101246
06:00+12вюв2292100 0.1 101246
09:00+17ююв1171100 0.1 1011157
12:00+24с2250100 0.0 10091386
15:00+21ссв3376100 1.6 1009343
18:00+19св0187100 3.1 101023
21:00+15ююв2196100 4.3 101322
20 августа, сб
сб2000:00+14юв2294100 0.3 101244
03:00+13юв2291100 0.4 101341
06:00+12юв2286100 0.0 101331
09:00+19юз0161100 0.0 1012345
12:00+22ссз3259100 0.0 10111196
15:00+23с2257100 0.1 10111376
18:00+20ссз0175100 0.1 101112
21:00+16ююв2389100 0.4 101347
21 августа, вс
вс2100:00+13ююв338082 0.0 101449
03:00+13юв336050 0.0 101350
06:00+14ююв225867 0.0 101225
09:00+21ю014399 0.0 1010369
12:00+26ссз21381 0.0 10081382
15:00+27сз22376 0.0 10071626
18:00+22з265610 0.0 1009288
21:00+16юв337725 0.1 101053
22 августа, пн
пн2200:00+13юв34784 0.0 101059
03:00+15юв335914 0.0 100944
06:00+15юв335690 0.0 101048
09:00+24вюв113832 0.0 1008349
12:00+28ссз2231100 0.0 10061481
15:00+26сз1149100 0.0 1006320
18:00+15юв3585100 0.7 1012117
21:00+14юв3790100 2.2 1012181